Regional Weather Roundup
Issued by NWS Grand Forks, ND

Home | Current Version | Previous Version | Graphics & Text | Print | Product List | Glossary On
Versions: 1 2 3 4 5 6 7 8 9 10 11 12 13 14 15 16 17 18 19 20 21 22 23 24 25 26 27 28 29 30 31 32 33 34 35 36 37 38 39 40 41 42 43 44 45 46 47 48 49 50
000
ASUS43 KFGF 071910
RWRFGF
PRAIRIE TO PINES  WEATHER ROUNDUP
NATIONAL WEATHER SERVICE EASTERN NORTH DAKOTA/GRAND FORKS ND
200 PM CDT TUE JUL 07 2015

 **SATELLITE DATA USED TO AUGMENT SKY COVER AT AUTOMATED STATIONS**
 *****  WEATHER ACROSS EASTERN NORTH DAKOTA  *****

CITY           SKY/WX    TMP DP  RH WIND       PRES   REMARKS
GRAND FORKS    MOSUNNY   69  45  41 VRB6      30.12F
GRAND FRKS AFB SUNNY     71  46  41 SW6       30.13F
GRAND FRKS NWS   N/A     72 N/A N/A W3          N/A
DEVILS LAKE    SUNNY     70  46  43 S9        30.09F
FARGO          SUNNY     71  44  37 S10       30.15F
WAHPETON ARPT  CLEAR     68  41  37 S7        30.17F
$$

 ***** WEATHER ACROSS CENTRAL AND WESTERN NORTH DAKOTA  *****

CITY           SKY/WX    TMP DP  RH WIND       PRES   REMARKS
BISMARCK       MOSUNNY   72  56  57 SE15      30.10F
MINOT          PTSUNNY   71  51  49 S15       30.06F
JAMESTOWN      SUNNY     71  45  39 S10       30.13F
MINOT AFB      MOSUNNY   73  57  56 S5        30.05F
GARRISON         N/A     70  56  61 S9G17     30.07F
WILLISTON      MOSUNNY   79  48  33 S8        30.03F
DICKINSON      PTSUNNY   74  58  57 SE15      30.05F
HETTINGER      MOSUNNY   74  57  55 SE15G23   30.07F
$$

 *****  OTHER AIRPORT OBSERVATIONS IN OUR AREA  *****

CITY           SKY/WX    TMP DP  RH WIND       PRES   REMARKS
WALHALLA       FAIR      70  48  46 MISG      30.09F
GRAFTON AIRPOR FAIR      70  48  46 VRB6G16   30.12F
VALLEY CITY AR FAIR      68  45  42 S9        30.14F
CANDO          FAIR      70  48  46 SW13      30.10S
CAVALIER APRT  FAIR      70  48  46 S10G20    30.10F
GWINNER        FAIR      70  45  40 SE8       30.16F
ROLLA            N/A     66  48  52 SW9G17    30.10S
 ***** THE ABOVE OBSERVATIONS ARE NON NWS ARE NOT QUALITY
       CONTROLLED AND MAY MIS-REPORT RAIN FOR SNOW...
$$

  *****  WEATHER ACROSS NORTHERN MINNESOTA  *****

CITY           SKY/WX    TMP DP  RH WIND       PRES   REMARKS
FLAG ISLAND    SUNNY     68  54  60 S14G20    30.08F
WARROAD        SUNNY     66  48  52 W8        30.12F
ROSEAU         SUNNY     68  52  56 SW7       30.12F
HALLOCK        SUNNY     70  48  46 S12       30.11F
THF RVR FALLS  SUNNY     66  45  45 S9        30.15S
BAUDETTE       SUNNY     70  47  43 CALM      30.12F
WASKISH        SUNNY     68  48  49 SW9       30.14S
CROOKSTON      SUNNY     68  45  42 SW10      30.15F
STEPHEN NDAWN    N/A     70  48  46 SW7         N/A
GREENBUSH NDAW   N/A     70  48  46 SW7         N/A
$$
  *****  WEATHER ACROSS CENTRAL AND WEST MINNESOTA  *****

CITY           SKY/WX    TMP DP  RH WIND       PRES   REMARKS
FOSSTON        SUNNY     68  46  45 CALM      30.16F
BEMIDJI        MOSUNNY   65  44  46 NW3       30.15F
PARK RAPIDS    SUNNY     69  43  38 VRB5      30.15F
ELBOW LAKE     FAIR      67  46  46 SE3       30.17F
WADENA         SUNNY     68  41  37 CALM      30.16F
DETROIT LAKES  SUNNY     66  36  32 W3        30.17F
MOORHEAD       SUNNY     68  43  40 SW5       30.16F
FERGUS FALLS   SUNNY     66  45  45 SW5       30.16F
MORRIS MN      PTSUNNY   68  48  49 CALM      30.17F
STAPLES        SUNNY     68  37  32 NE3       30.16F
$$
  *****  WEATHER ELSEWHERE ACROSS MINNESOTA  *****

CITY           SKY/WX    TMP DP  RH WIND       PRES   REMARKS
DULUTH         MOSUNNY   68  43  40 N12       30.12F
INTRNTL FALLS  SUNNY     70  43  37 W3        30.11F
ELY            SUNNY     66  39  37 NE7       30.11F
CLOQUET        MOSUNNY   68  39  34 NW7       30.14S
WHEATON        MOSUNNY   66  46  48 S8        30.19F
BRAINERD       MOSUNNY   70  43  37 VRB5      30.16F
HIBBING        SUNNY     68  41  37 SW6       30.13F
ALEXANDRIA     SUNNY     66  43  43 VRB5      30.19F
SAINT CLOUD    SUNNY     69  43  38 E6        30.16F
MINNEAPOLIS    MOSUNNY   67  46  47 NE12      30.15F
$$

  *****  WEATHER ACROSS SOUTH DAKOTA  *****

CITY           SKY/WX    TMP DP  RH WIND       PRES   REMARKS
SIOUX FALLS    MOSUNNY   67  49  52 VRB3      30.18F
BROOKINGS      MOSUNNY   63  45  51 E6        30.20F
WATERTOWN      SUNNY     66  45  46 SE8       30.18F
HURON          SUNNY     69  48  47 S9        30.17F
SISSETON         N/A     68  44  42 SW9       30.16F
ABERDEEN       SUNNY     70  43  37 SE10G17   30.16F
MITCHELL       SUNNY     70  49  47 MISG      30.18F
PIERRE         SUNNY     72  57  59 S14       30.11F
MOBRIDGE       SUNNY     75  56  51 SE16      30.09F
RAPID CITY     MOSUNNY   71  59  65 S22       30.09F
$$

  *****  SOME WEATHER IN NEARBY STATES *****

CITY           SKY/WX    TMP DP  RH WIND       PRES   REMARKS
GLASGOW MT     SUNNY     79  45  29 W9        30.01F
GREAT FALLS MT LGT RAIN  59  54  83 NW12      30.16R
CHEYENNE WY    CLOUDY    62  53  72 S10       30.20F HAZE
SCOTTSBLUFF NE CLOUDY    68  55  63 SE10      30.15F HAZE
OMAHA NE       MOSUNNY   71  52  50 N13       30.13F
DES MOINES IA  MOSUNNY   71  50  47 VRB6      30.10S
DAVENPORT IA   PTSUNNY   69  55  60 N10       30.05S HAZE
CHICAGO IL     MOSUNNY   67  46  47 NE20G28   30.03R
EAU CLAIRE WI  MOSUNNY   69  47  45 NE9       30.12S
LA CROSSE WI   PTSUNNY   69  46  43 NE10      30.11F
$$

  *****  SOME NATIONAL WEATHER *****

CITY           SKY/WX    TMP DP  RH WIND       PRES   REMARKS
LA GUARDIA NY  MOSUNNY   84  70  62 S16       29.96F
RALEIGH NC     MOSUNNY   88  71  57 W5        30.09F HX  94
ATLANTA GA     MOSUNNY   88  69  53 CALM      30.16F HX  92
NEW ORLEANS LA MOSUNNY   91  75  59 S13       30.11F HX 101
OKLAHOMA CITY  LGT RAIN  71  70  96 N13       30.00S FOG
ALBUQUERQUE NM MOSUNNY   75  55  49 S6        30.19F
SALT LAKE CITY PTSUNNY   81  54  39 S6        30.02F
LOS ANGELES CA CLOUDY    68  61  78 SW6       29.99S
BOISE ID       PTSUNNY   86  49  27 VRB5      29.99F
SEATTLE WA     MOSUNNY   69  54  58 VRB5      30.04F
$$

*** WEATHER ACROSS MANITOBA...SASKATCHEWAN AND ONTARIO ***
                ***ONTARIO***

CITY           SKY/WX    TMP DP  RH WIND       PRES   REMARKS
GERALDTON      PTSUNNY   70  46  43 NW9G18    29.98S
THUNDER BAY    MOSUNNY   72  43  35 NW6       30.05F
SIOUX LOOKOUT  MOSUNNY   70  46  43 W9        30.06F
TORONTO        CLOUDY    77  72  83 SW17G26   29.81S
BIG TROUT LK   SUNNY     75  48  38 W10G20    29.84F
PICKLE LAKE    PTSUNNY   73  46  38 W7G20     29.98S
DRYDEN         SUNNY     68  41  37 SW9       30.08F
KENORA         MOSUNNY   68  45  42 W8        30.09F
$$
                *** MANITOBA***

CITY           SKY/WX    TMP DP  RH WIND       PRES   REMARKS
BRANDON        PTSUNNY   72  54  53 SW12G21   30.05F
DAUPHIN        SUNNY     75  52  43 SW17G23   29.96F
ISLAND LAKE    MOSUNNY   72  48  43 W15G24    29.85F
PILOT MOUND      N/A     68  50  52 SW9         N/A
THE PAS        CLOUDY    59  54  82 W9        29.90S SMOKE
THOMPSON       LGT RAIN  52  46  82 NW16G28   29.80R
WINNIPEG       MOSUNNY   72  50  46 SW15G24   30.07F
LYNN LAKE      PTSUNNY   55  41  58 N15G22    29.87S
CHURCHILL      LGT RAIN  45  45 100 NW15G22   29.68R
GILLAM         SMOKE     64  52  63 W17G29    29.67R VSB 1
$$
                ***SASKATCHEWAN***

CITY           SKY/WX    TMP DP  RH WIND       PRES   REMARKS
ESTEVAN        NOT AVBL
KINDERSLEY     NOT AVBL
LLOYDMINSTER   PTSUNNY   59  39  47 N8        30.11F
PRINCE ALBERT  NOT AVBL
REGINA         PTSUNNY   75  50  41 W12       29.97F
YORKTON        MOSUNNY   75  54  46 SW16G23   29.95F
N. BATTLEFORD  PTSUNNY   57  46  67 N15G22    30.09S
LA RONGE       NOT AVBL
SASKATOON      PTSUNNY   63  48  59 N15G24    30.05R
SWIFT CURRENT  MOSUNNY   73  45  35 N13G26    30.02F
$$
NOTE: THESE ARE AUTOMATED STATIONS WITH LIMITED QUALITY CONTROL
      "FAIR" INDICATES FEW OR NO CLOUDS BELOW 12,000 FEET WITH NO
      SIGNIFICANT WEATHER AND/OR OBSTRUCTIONS TO VISIBILITY.
      SKY/WX - SKY CONDITION AND SIGNIFICANT WEATHER.
      TMP - AIR TEMPERATURE.    DP   - DEWPOINT TEMPERATURE.
      RH  - RELATIVE HUMIDITY.  PRES - PRESSURE.
      HX  - HEAT INDEX.         WCI  - WIND CHILL INDEX.
$



USA.gov is the U.S. government's official web portal to all federal, state and local government web resources and services.